Weather Roundup
Issued by NWS

Home | Current Version | Previous Version | Graphics & Text | Print | Product List | Glossary Off
Versions: 1 2 3 4 5 6 7 8 9 10 11 12 13 14 15 16 17 18 19 20 21 22 23 24 25 26 27 28 29 30 31 32 33 34 35 36 37 38 39 40 41 42 43 44 45 46 47 48 49 50

545
NZUS93 KARX 251659
HRRWXR

CURRENT HOURLY OBSERVATIONS ACROSS
MUCH OF THE UPPER MISSISSIPPI VALLEY
NATIONAL WEATHER SERVICE LA CROSSE WI
1200 PM CDT MON JUL 25 2016


...SOUTHEAST MINNESOTA...


CITY           SKY/WX    TMP DP  RH WIND       PRES   REMARKS
ROCHESTER      MOSUNNY   80  63  55 NW8       30.10S
ROCHESTER/MAYO FAIR      78  59  52 NW6       30.09S
WINONA         SUNNY     79  61  53 NW12      30.06S
AUSTIN         SUNNY     79  63  57 W8        30.10S
ALBERT LEA     SUNNY     79  63  57 W6        30.10S
DODGE CENTER   SUNNY     81  61  50 NW8       30.10S
PRESTON        SUNNY     77  60  56 NW6       30.09F
OWATONNA       SUNNY     79  61  53 CALM      30.09S
FARIBAULT      SUNNY     81  63  54 NW3       30.09S
$$

...ELSEWHERE IN MINNESOTA...


CITY           SKY/WX    TMP DP  RH WIND       PRES   REMARKS
MINNEAPOLIS    SUNNY     83  60  45 VRB7      30.06F
INTNL FALLS    MOSUNNY   77  58  51 W7        30.00S
DULUTH         MOSUNNY   77  61  57 NW10      30.04S
RED WING       MOSUNNY   81  61  50 W7        30.05S
REDWOOD FALLS  SUNNY     81  59  47 CALM      30.09S
MANKATO        SUNNY     79  61  53 CALM      30.09S
WORTHINGTON    SUNNY     80  62  54 CALM      30.14S
FAIRMONT       SUNNY     81  59  47 N6        30.11S
$$

...SOUTHWEST WISCONSIN...


CITY           SKY/WX    TMP DP  RH WIND       PRES   REMARKS
LA CROSSE      SUNNY     83  63  50 NW10      30.04S
PRAIRIE DU CHI SUNNY     81  57  44 NW13      30.04F
BOSCOBEL       MOSUNNY   85  64  49 NW10      30.05S
LONE ROCK      NOT AVBL
PLATTEVILLE    SUNNY     79  66  64 NW9       30.06S
FORT MC COY    MOSUNNY   80  63  57 NW10      30.06R
MAUSTON-NEW LI SUNNY     79  66  65 NW10G16   30.03S
VIROQUA        FAIR      78  62  58 NW10      30.07S
WIS DELLS      NOT AVBL
$$

...ELSEWHERE IN WISCONSIN...


CITY           SKY/WX    TMP DP  RH WIND       PRES   REMARKS
MILWAUKEE      MOSUNNY   85  62  46 N10       29.99F
MADISON        MOSUNNY   82  64  54 NW9       30.03R
GREEN BAY      SUNNY     80  67  64 NW13G21   29.97F
EAU CLAIRE     NOT AVBL
BLACK RVR FLS  FAIR      80  60  50 W6G16     30.04S
MEDFORD        SUNNY     74  62  64 NW9G16    30.05S
WAUSAU         MOSUNNY   78  59  51 NW14      30.01S
WIS RAPIDS     SUNNY     82  59  45 NW12      30.04S
MARSHFIELD     SUNNY     79  62  56 NW10      30.04S
RICE LAKE      MOSUNNY   77  60  56 NW8       30.07F
$$

...NORTHEAST IOWA...


CITY           SKY/WX    TMP DP  RH WIND       PRES   REMARKS
WATERLOO       SUNNY     81  61  50 N12       30.07S
DUBUQUE        SUNNY     80  62  54 N12       30.07S
DECORAH        SUNNY     79  63  57 N10       30.07S
MASON CITY     SUNNY     81  63  54 NW10      30.12S
CHARLES CITY   SUNNY     79  63  57 NW12      30.10S
OELWEIN        SUNNY     79  64  61 NW9G16    30.09S
$$

...ELSEWHERE IN IOWA...


CITY           SKY/WX    TMP DP  RH WIND       PRES   REMARKS
DES MOINES     MOSUNNY   86  60  41 VRB6      30.10R
IOWA CITY      SUNNY     83  66  56 N10       30.07R
FORT DODGE     SUNNY     81  64  57 NW5       30.12S
MARSHALLTOWN   SUNNY     83  62  49 N7        30.09R
CEDAR RAPIDS   SUNNY     81  66  60 NW9       30.06F
$$

...NORTHERN ILLINOIS...


CITY           SKY/WX    TMP DP  RH WIND       PRES   REMARKS
CHICAGO-OHARE  CLOUDY    85  64  49 N6        30.00S
CHICAGO-MIDWAY PTSUNNY   84  62  47 NW9       30.00S
MOLINE         MOSUNNY   85  64  49 N10       30.03R
ROCKFORD       MOSUNNY   85  65  51 N12       30.03R
PEORIA         CLOUDY    81  73  76 S7        30.05R
$$

NOTE: "FAIR" INDICATES FEW OR NO CLOUDS BELOW 12,000 FEET WITH NO
SIGNIFICANT WEATHER AND/OR OBSTRUCTIONS TO VISIBILITY. WIND
SPEEDS ARE IN MILES-PER-HOUR.




USA.gov is the U.S. government's official web portal to all federal, state and local government web resources and services.